Weather in Bhagalpur

India     25°14′49″N   86°59′04″E
temp.,
°C
wind,
m/s
gust,
m/s
humid.,
%
clouds,
%
prec.,
mm/h
press.,
hPa
HPBL,
m
24 may, tue
tue2423:30+30ene23480 0.2 1002118
02:30+28e47670 0.2 1002333
05:30+28e23590 0.3 1003156
08:30+32ese23470 0.4 1004800
11:30+37wsw01330 0.4 10032508
14:30+38nw23244 0.0 10002947
17:30+34s3431100 0.1 1000192
20:30+33sw22331 0.1 100359
25 may, wed
wed2523:30+31nne345093 0.3 1004155
02:30+30s255238 0.1 1003196
05:30+30sse245598 0.0 1003253
08:30+34n12430 0.0 10051018
11:30+38e333092 0.0 10032770
14:30+36ne753439 0.6 1000597
17:30+32ese674558 1.4 1000393
20:30+29ene49464 0.0 1003350
26 may, thu
thu2623:30+29se364765 0.0 1003202
02:30+29sse365384 0.0 1002213
05:30+28sse25620 0.0 1002227
08:30+34sse22430 0.0 10041014
11:30+39ssw24270 0.0 10013049
14:30+40s342067 0.0 9973693
17:30+36e772972 0.3 997576
20:30+32se58450 0.0 999300
27 may, fri
fri2723:30+30sse410455 0.0 1000383
02:30+29ese24547 0.0 999195
05:30+28ene336146 0.0 1000169
08:30+33e544676 0.0 1001810
11:30+38se33306 0.0 10001670
14:30+41wsw35195 0.0 9953495
17:30+41nw251614 0.0 9943311
20:30+36e5934100 0.0 997392
28 may, sat
sat2823:30+34ese593656 0.0 997441
02:30+32se494783 0.0 996484
05:30+32e3558100 0.4 997315
08:30+33e435870 0.0 999874
11:30+36e544424 0.0 9981488
14:30+39ne543358 0.0 9952251
17:30+38ne54364 0.0 9941234
20:30+34e58480 0.3 997477